Estación Meteorológica Peña el Pijo (Robertgarden) [ 11/16/19 01:55:21 CET ]

Fecha Hora Presion(HPa) Temp (°C) Humedad % Rocio (°C) Viento ( m/s) Direccion Lluvia 1Hora(mm) Lluvia 24H(mm) LLuvia Total(mm)
2019-Jun-09 01:09:16 1011.500 - - - - NNE     318.05
2019-Jun-09 02:09:09 1010.800 - - - - NNE     318.05
2019-Jun-09 03:09:56 1010.600 - - - - NNE     318.05
2019-Jun-09 04:10:48 1010.400 - - - - NNE     318.05
2019-Jun-09 05:10:44 1010.200 - - - - NNE     318.05
2019-Jun-09 06:10:46 1009.200 - - - - NNE     318.05
2019-Jun-09 07:09:01 1008.900 - - - - NNE     318.05
2019-Jun-09 08:08:59 1009.500 - - - - NNE     318.05
2019-Jun-09 09:09:23 1009.600 - - - - NNE     318.05
2019-Jun-09 10:09:11 1010.300 - - - - NNE     318.05
2019-Jun-09 11:08:58 1010.100 - - - - NNE     318.05
2019-Jun-09 12:02:08 1009.700 18.4 52 8.3     7.77 7.77 325.82
2019-Jun-09 13:01:46 1009.800 19.3 48 8.0       7.77 325.82
2019-Jun-09 14:02:02 1009.300 20.4 51 9.9       7.77 325.82
2019-Jun-09 15:01:46 1008.700 27.6 30 8.5       7.77 325.82
2019-Jun-09 16:01:54 1008.100 29.7 28 9.1       7.77 325.82
2019-Jun-09 17:01:46 1007.700 29.4 27 8.3       7.77 325.82
2019-Jun-09 18:01:57 1007.100 29.0 26 7.3       7.77 325.82
2019-Jun-09 19:01:42 1007.100 27.2 28 7.0       7.77 325.82
2019-Jun-09 20:01:51 1007.400 24.8 30 6.1       7.77 325.82
2019-Jun-09 21:01:52 1007.800 21.2 39 6.7       7.77 325.82
2019-Jun-09 22:01:44 1008.400 18.9 44 6.3       7.77 325.82
2019-Jun-09 23:01:39 1009.300 16.2 51 6.0       7.77 325.82

Temperatura Máxima:29°    Temperatura Mínima:
Presión Máxima:1011.500 Hpa    Presión Mínima:1007.100 Hpa


Volver